Weather History for Nellis AFB, NV

Change the Weather History Date:

Wednesday, December 19, 2012

  Actual Average Record
Temperature  
Mean Temperature 40 °F -  
Max Temperature 46 °F 55 °F 66 °F (1998)
Min Temperature 33 °F 33 °F 24 °F (1996)
Degree Days  
Heating Degree Days 26    
Moisture  
Dew Point 14 °F    
Average Humidity 36    
Maximum Humidity 56    
Minimum Humidity 17    
Precipitation  
Precipitation 0.00 in - - ()
Sea Level Pressure  
Sea Level Pressure 30.24 in    
Wind  
Wind Speed 17 mph (NNE)    
Max Wind Speed 31 mph    
Max Gust Speed 36 mph    
Visibility 10 miles    
Events      
Averages and records for this station are not official NWS values.
T = Trace of Precipitation, MM = Missing Value Source: NWS Daily Summary

Daily Weather History Graph

Daily Weather History Graph

Search for Another Location

Airport:

Trip Planner

Search our weather history database for the weather conditions in past years. The results will help you decide how hot, cold, wet, or windy it might be!

Date:

Astronomy

Dec. 19, 2012 Rise Set
Actual Time 6:46 AM PST 4:28 PM PST
Civil Twilight 6:18 AM PST 4:57 PM PST
Nautical Twilight 5:45 AM PST 5:29 PM PST
Astronomical Twilight 5:14 AM PST 6:00 PM PST
Moon 11:09 AM PST (12/19) 11:47 PM PST (12/19)
Length of Visible Light 10h 38m
Length of Day
9h 41m
Waxing Crescent, 46% of the Moon is Illuminated
Dec 19
Waxing Crescent
Dec 19
First Quarter
Dec 28
Full
Jan 4
Last Quarter
Jan 11
New

Hourly Weather History & Observations

Time (PST) Temp. Windchill Dew Point Humidity Pressure Visibility Wind Dir Wind Speed Gust Speed Precip Events Conditions
12:58 AM 43.3 °F 34.0 °F 24.6 °F 48% 29.85 in 10.0 mi WNW 24.2 mph 28.8 mph N/A   Clear
1:58 AM 41.7 °F 34.8 °F 23.0 °F 47% 29.89 in 10.0 mi NNW 12.7 mph 27.6 mph N/A   Clear
2:58 AM 41.0 °F 29.7 °F 16.9 °F 38% 29.93 in 10.0 mi WNW 31.1 mph 35.7 mph N/A   Clear
3:58 AM 39.6 °F 29.2 °F 16.9 °F 40% 29.98 in 10.0 mi NW 23.0 mph 32.2 mph N/A   Clear
4:58 AM 38.7 °F 28.8 °F 14.0 °F 37% 30.03 in 10.0 mi WNW 19.6 mph - N/A   Clear
5:58 AM 38.3 °F 27.3 °F 13.1 °F 36% 30.08 in 10.0 mi WNW 24.2 mph 32.2 mph N/A   Clear
6:58 AM 37.2 °F - 14.9 °F 40% 30.15 in 10.0 mi WNW 2.3 mph - N/A   Clear
7:58 AM 39.4 °F 30.1 °F 12.2 °F 33% 30.22 in 10.0 mi WNW 18.4 mph 25.3 mph N/A   Clear
8:58 AM 40.8 °F 33.3 °F 11.1 °F 30% 30.26 in 10.0 mi WNW 13.8 mph 24.2 mph N/A   Clear
9:58 AM 42.6 °F 37.8 °F 10.2 °F 27% 30.27 in 10.0 mi NE 8.1 mph - N/A   Clear
10:58 AM 44.6 °F 37.2 °F 8.8 °F 23% 30.27 in 10.0 mi NNE 17.3 mph - N/A   Clear
11:58 AM 45.9 °F 38.0 °F 4.3 °F 18% 30.28 in 10.0 mi NNE 20.7 mph 27.6 mph N/A   Clear
12:58 PM 46.4 °F 38.3 °F 6.1 °F 19% 30.28 in 10.0 mi NE 23.0 mph - N/A   Clear
1:58 PM 45.7 °F 38.8 °F 4.1 °F 18% 30.28 in 10.0 mi North 16.1 mph - N/A   Clear
2:58 PM 46.0 °F 39.6 °F 2.5 °F 17% 30.31 in 10.0 mi NNE 15.0 mph - N/A   Clear
3:58 PM 45.0 °F 38.5 °F 5.5 °F 20% 30.33 in 10.0 mi NNE 13.8 mph - N/A   Clear
4:58 PM 42.4 °F 37.5 °F 9.0 °F 25% 30.35 in 10.0 mi NNE 8.1 mph - N/A   Clear
5:58 PM 38.3 °F 31.4 °F 16.3 °F 41% 30.38 in 10.0 mi ENE 10.4 mph - N/A   Clear
6:58 PM 36.3 °F 30.1 °F 18.0 °F 47% 30.40 in 10.0 mi ENE 8.1 mph - N/A   Clear
7:58 PM 34.9 °F 29.0 °F 19.2 °F 53% 30.42 in 10.0 mi East 6.9 mph - N/A   Clear
8:58 PM 34.2 °F 27.5 °F 19.4 °F 55% 30.43 in 10.0 mi ENE 8.1 mph - N/A   Clear
9:58 PM 33.4 °F 25.4 °F 19.2 °F 56% 30.44 in 10.0 mi ENE 10.4 mph - N/A   Clear
10:58 PM 33.6 °F 26.8 °F 18.7 °F 54% 30.46 in 10.0 mi ENE 8.1 mph - N/A   Clear
11:58 PM 33.8 °F 27.0 °F 18.0 °F 52% 30.45 in 10.0 mi East 8.1 mph - N/A   Clear